Wind_Speed
6 5 5 4 4 3 2 1 1 1 0 1 1 2 2 2 3 3 4 5 6 6 6 6 6 7 7 7 7 7 7 9 9 9 9 9 10 10 9 9 8 8 7
8 7 6 6 5 3 2 2 1 1 1 1 1 1 2 2 3 3 4 5 5 5 5 6 6 6 6 7 8 8 8 8 9 9 10 10 10 11 11 11 11 10 9
9 8 7 7 6 4 3 2 2 1 1 1 1 1 1 2 3 3 3 4 4 4 4 5 5 6 6 7 7 8 9 9 9 9 10 10 11 12 12 13 13 12 11
10 9 8 8 7 5 4 2 2 2 1 1 1 1 1 1 2 2 2 2 2 3 4 5 5 5 6 6 7 7 7 8 9 10 10 11 11 12 13 14 14 14 14
11 11 10 9 7 6 5 4 3 2 1 1 1 1 1 1 1 1 1 1 1 2 3 4 4 5 5 6 6 7 8 8 9 10 11 11 12 13 13 13 15 16 16
12 11 10 9 8 7 6 5 4 3 2 2 1 1 1 1 1 1 1 1 1 2 3 3 4 4 4 5 5 6 6 7 8 9 10 11 12 12 13 13 14 15 16
14 12 11 10 9 8 7 6 5 4 3 2 2 1 1 1 1 1 1 1 2 2 2 3 4 4 4 5 5 6 6 7 8 9 10 10 11 12 13 14 14 15 16
15 13 12 11 10 9 8 8 6 5 4 3 3 2 2 2 2 2 2 2 2 3 3 3 3 4 4 4 5 5 6 7 8 8 9 10 11 12 13 13 14 15 16
17 15 14 13 12 11 10 9 7 6 5 4 3 3 3 3 3 3 3 3 3 3 4 4 4 5 5 6 6 6 6 7 8 9 9 10 10 11 12 13 14 15 16
18 17 16 15 13 12 11 10 9 8 7 6 5 5 5 4 4 4 4 4 4 4 5 5 5 6 6 7 7 7 8 9 9 10 10 10 11 11 11 12 13 15 16
20 18 17 16 15 14 13 12 11 10 9 8 7 7 6 6 6 6 6 5 5 6 6 6 6 7 8 8 9 9 10 10 10 11 11 12 12 12 13 13 14 15 16
21 20 18 17 16 15 15 14 12 11 11 10 9 9 9 8 8 8 8 8 8 8 8 9 9 9 10 10 11 11 11 12 12 12 13 13 14 14 14 14 15 16 16
22 21 19 18 17 17 16 15 14 13 12 12 11 11 11 10 10 10 10 10 11 11 11 11 12 12 12 13 13 14 14 14 14 15 15 15 16 16 16 16 16 17 18
22 22 20 19 19 18 17 17 16 15 14 14 13 13 13 12 12 13 13 13 13 14 14 15 15 15 16 16 16 17 17 17 18 18 18 18 18 19 19 19 19 19 19
22 22 21 20 20 19 18 18 17 16 16 16 16 16 16 16 16 16 16 16 17 17 17 18 18 18 19 19 20 20 20 20 21 21 21 21 22 22 22 22 22 22 22
21 22 22 21 21 20 20 19 18 18 18 19 19 19 19 19 19 19 19 20 20 20 21 21 22 22 22 23 23 24 24 24 24 24 24 25 25 25 25 25 25 25 25
20 21 22 22 20 20 20 20 20 20 21 21 21 21 21 22 22 23 23 23 23 24 25 25 26 26 26 26 27 27 28 28 28 28 28 28 28 28 28 29 28 28 28
20 21 21 21 20 21 21 21 21 22 23 23 23 23 24 24 25 26 26 27 27 27 28 28 29 30 31 31 31 31 32 32 32 32 32 32 32 32 32 32 32 31 31
20 21 21 21 22 22 22 23 24 24 24 25 25 26 27 27 28 28 29 30 30 31 31 32 33 34 34 34 35 35 35 35 35 35 35 35 35 36 35 35 35 35 34
20 20 21 21 22 23 24 25 25 26 26 27 28 29 29 30 31 32 32 33 33 33 34 35 36 37 37 37 37 37 38 38 38 39 38 38 38 39 38 38 38 37 37
19 20 21 22 24 25 26 27 27 28 29 30 31 32 32 33 34 35 35 36 36 37 37 38 39 39 40 40 40 40 40 40 40 41 41 41 41 41 41 41 40 40 41
19 20 22 23 25 26 27 28 29 29 31 32 33 34 35 36 37 37 38 38 39 40 40 41 41 42 42 43 43 43 43 43 42 43 43 42 43 43 44 44 44 43 44
20 22 24 25 26 27 29 30 32 33 33 34 35 37 37 38 39 39 39 40 42 43 43 43 44 44 45 45 46 46 46 46 45 45 46 45 46 46 47 47 47 47 47
23 24 25 27 29 29 31 31 32 33 34 36 37 38 39 40 40 41 41 42 42 43 44 45 46 46 47 47 48 48 48 48 48 48 49 49 49 49 49 49 50 50 51
26 27 28 29 30 32 32 33 35 35 36 37 39 40 41 42 43 43 44 43 43 44 45 46 46 47 47 49 50 51 51 52 51 51 52 53 53 53 53 53 53 52 52
28 30 31 31 32 33 34 36 38 38 38 39 40 41 42 43 44 44 45 45 45 46 47 47 48 49 50 51 51 52 53 54 54 53 54 54 54 55 55 54 54 55 55
Wind_Direction
215 213 209 207 212 227 241 264 312 319 269 256 250 237 234 243 246 239 241 246 245 230 225 233 237 240 239 240 241 240 241 238 238 240 242 242 240 241 242 243 243 243 244
217 215 212 210 217 226 230 246 277 288 273 257 248 243 247 255 253 248 252 252 249 241 238 244 244 247 249 248 247 248 246 244 246 249 251 249 247 247 247 245 247 248 248
216 217 215 215 218 221 226 247 260 230 243 243 226 215 238 262 255 257 270 270 257 242 237 244 252 252 254 255 253 248 248 248 250 256 257 257 255 256 254 250 249 251 252
222 218 216 218 219 222 222 232 224 206 215 219 210 202 225 257 253 266 275 280 259 250 242 246 252 255 258 259 259 260 258 250 251 254 258 261 262 260 259 255 251 252 254
224 220 217 218 220 219 216 212 194 190 204 206 203 224 247 253 267 260 260 275 273 265 254 250 255 261 266 267 270 272 269 266 263 261 263 266 265 262 261 259 256 254 254
222 220 216 217 220 219 217 208 196 195 206 207 210 229 271 262 252 253 255 274 278 289 279 261 262 272 272 273 273 275 276 278 273 272 272 272 269 268 266 264 264 261 258
223 221 218 218 219 215 210 203 202 208 214 214 223 240 257 257 255 263 266 272 282 293 294 273 272 275 275 276 278 280 281 284 284 279 279 278 277 275 274 272 270 268 266
224 224 222 219 216 213 210 210 211 215 214 219 230 240 249 256 257 272 274 272 279 286 295 296 289 288 293 292 295 296 290 287 291 293 288 285 282 279 277 277 276 274 272
225 228 224 218 217 217 215 214 217 218 218 222 227 231 238 246 252 262 272 277 279 281 288 293 289 296 300 305 307 304 299 296 295 296 297 296 291 288 283 280 277 277 276
224 226 223 219 221 219 217 219 221 221 225 229 232 233 240 244 249 257 263 269 276 282 287 293 294 294 295 299 302 304 302 299 297 295 296 297 297 296 293 288 283 281 279
224 225 221 223 222 220 221 224 225 227 231 233 237 240 240 243 251 256 261 269 277 285 291 292 293 294 295 296 299 300 300 299 297 295 295 295 294 294 294 292 290 287 284
224 223 223 225 225 225 227 228 231 234 238 239 242 246 245 248 254 257 262 270 276 281 284 285 287 289 291 294 296 298 299 298 297 295 293 292 292 292 291 291 290 289 288
223 224 227 229 229 229 229 233 235 239 244 246 248 249 248 250 257 262 265 269 274 277 280 282 285 287 289 291 293 294 295 296 295 294 293 292 291 291 290 289 288 288 287
226 227 230 233 232 231 233 237 240 243 246 249 252 253 254 255 258 264 267 271 274 277 279 281 283 286 287 288 289 290 291 292 293 293 292 292 291 290 289 288 288 288 287
226 230 231 233 232 234 238 242 244 247 249 251 254 255 256 258 260 264 268 272 275 277 278 279 281 283 284 285 286 288 288 289 289 290 290 290 290 290 290 288 287 286 285
228 230 231 231 233 236 240 243 246 250 253 256 258 257 258 260 263 266 268 272 275 278 279 280 281 282 283 283 284 284 285 286 286 286 287 288 288 288 288 287 287 285 285
232 234 231 234 236 238 243 248 253 256 258 258 260 262 262 263 265 267 269 272 275 277 279 280 281 282 283 284 284 284 284 285 285 285 285 285 286 285 285 286 286 285 285
236 235 233 235 238 244 248 251 256 259 260 260 263 264 266 266 268 269 270 273 275 277 279 280 281 282 283 284 284 284 283 283 284 285 284 283 283 283 283 284 283 283 283
236 237 237 239 243 248 250 253 258 260 262 264 266 267 268 269 269 270 271 273 275 277 279 279 281 282 283 283 283 283 284 283 283 284 284 283 283 283 283 283 282 282 282
239 239 242 246 250 252 254 257 259 262 264 267 268 269 270 270 271 272 272 274 275 277 278 279 280 280 281 282 283 283 284 284 284 283 283 283 283 282 282 281 281 281 281
241 244 249 251 254 256 258 260 264 266 267 269 269 270 270 272 273 273 273 273 274 276 278 279 280 280 281 282 282 282 283 284 283 283 283 283 283 282 282 281 281 280 280
247 249 253 256 259 261 263 265 267 269 269 269 270 272 273 274 275 275 274 275 276 277 278 279 280 280 280 280 280 281 281 282 282 281 281 282 282 283 282 281 280 280 280
255 256 258 261 264 265 265 267 267 268 269 270 271 273 274 275 275 275 276 276 277 278 278 279 280 281 280 280 280 280 280 281 281 281 281 281 282 282 281 281 281 280 281
260 262 264 266 268 269 270 271 270 271 274 274 275 276 276 276 276 276 277 277 278 279 278 279 280 280 281 281 281 281 281 281 281 281 282 282 282 281 281 281 281 280 281
263 265 267 270 270 270 272 273 274 276 277 278 278 278 277 276 276 276 277 279 280 280 280 280 281 282 283 283 283 283 282 282 281 281 282 282 282 281 282 282 281 280 280
267 270 270 270 271 271 272 273 275 276 277 278 279 279 278 278 277 278 278 279 280 281 282 282 282 282 283 284 284 285 284 282 282 282 283 283 282 282 282 282 282 281 280
Height
5892 5893 5894 5894 5895 5895 5895 5895 5895 5895 5894 5894 5894 5894 5894 5894 5894 5894 5893 5894 5894 5894 5894 5895 5895 5896 5896 5896 5897 5897 5897 5898 5899 5899 5900 5900 5901 5901 5902 5902 5902 5903 5903
5891 5892 5892 5893 5894 5894 5894 5894 5894 5894 5894 5894 5894 5894 5894 5894 5893 5893 5893 5893 5893 5893 5894 5894 5894 5895 5895 5895 5895 5896 5896 5897 5897 5898 5898 5898 5899 5899 5900 5900 5901 5901 5902
5889 5890 5891 5892 5893 5893 5894 5894 5894 5894 5894 5894 5894 5894 5894 5893 5893 5893 5893 5892 5892 5893 5893 5893 5893 5894 5894 5894 5894 5894 5894 5895 5895 5896 5896 5897 5897 5897 5898 5898 5899 5899 5900
5888 5889 5890 5891 5892 5892 5893 5893 5893 5894 5894 5894 5894 5894 5893 5893 5893 5892 5892 5892 5892 5892 5892 5892 5893 5893 5893 5893 5892 5892 5893 5893 5894 5894 5894 5895 5895 5895 5895 5896 5896 5897 5897
5886 5888 5889 5890 5891 5891 5892 5893 5893 5893 5894 5894 5894 5893 5893 5893 5893 5892 5892 5892 5892 5892 5892 5892 5892 5892 5892 5891 5892 5892 5892 5892 5892 5892 5892 5892 5892 5893 5893 5893 5893 5894 5894
5884 5885 5887 5888 5889 5890 5891 5892 5892 5893 5893 5893 5893 5893 5893 5893 5892 5892 5892 5892 5892 5892 5891 5891 5891 5891 5891 5891 5891 5891 5891 5891 5891 5891 5890 5890 5890 5890 5890 5890 5890 5891 5891
5882 5883 5885 5887 5888 5889 5890 5891 5892 5892 5893 5893 5893 5893 5893 5893 5892 5892 5892 5892 5892 5891 5891 5891 5890 5890 5890 5890 5890 5889 5889 5889 5889 5889 5888 5888 5888 5887 5887 5888 5888 5888 5888
5880 5881 5884 5885 5886 5888 5889 5890 5891 5891 5892 5892 5892 5893 5893 5893 5893 5892 5892 5892 5892 5892 5891 5891 5890 5890 5889 5889 5889 5888 5888 5888 5887 5887 5886 5886 5885 5885 5885 5885 5885 5885 5884
5877 5879 5882 5883 5885 5886 5888 5889 5890 5891 5891 5891 5892 5892 5893 5893 5893 5893 5892 5892 5892 5891 5891 5890 5890 5889 5889 5888 5888 5888 5887 5887 5886 5885 5885 5884 5884 5883 5883 5882 5882 5881 5881
5875 5877 5879 5881 5883 5885 5886 5888 5889 5889 5890 5890 5891 5891 5892 5892 5892 5892 5892 5892 5892 5891 5891 5890 5890 5889 5888 5888 5887 5887 5886 5885 5885 5884 5883 5882 5882 5881 5880 5879 5879 5878 5877
5872 5874 5876 5879 5881 5883 5884 5886 5887 5888 5888 5889 5890 5890 5891 5891 5891 5891 5891 5891 5891 5890 5890 5889 5889 5888 5887 5887 5886 5885 5884 5884 5883 5882 5881 5880 5879 5879 5878 5877 5876 5875 5874
5869 5871 5874 5876 5878 5880 5882 5883 5885 5886 5886 5887 5888 5889 5889 5889 5890 5890 5890 5889 5889 5889 5888 5888 5887 5886 5886 5885 5884 5884 5883 5882 5881 5880 5879 5878 5877 5876 5875 5874 5873 5872 5871
5866 5869 5871 5874 5876 5878 5879 5881 5882 5883 5884 5885 5885 5886 5887 5887 5887 5888 5887 5887 5887 5887 5886 5885 5885 5884 5883 5882 5882 5881 5880 5879 5878 5877 5876 5875 5874 5873 5871 5870 5869 5868 5867
5863 5866 5868 5870 5873 5874 5876 5878 5879 5880 5881 5882 5883 5883 5884 5884 5884 5884 5885 5884 5884 5884 5883 5883 5882 5881 5880 5879 5879 5878 5877 5875 5874 5873 5872 5871 5870 5869 5868 5867 5865 5864 5863
5859 5862 5865 5867 5869 5871 5873 5875 5876 5877 5878 5879 5879 5880 5880 5880 5881 5881 5881 5881 5881 5880 5879 5879 5878 5877 5876 5875 5874 5873 5872 5871 5870 5869 5868 5866 5865 5864 5863 5862 5861 5859 5858
5855 5858 5861 5863 5865 5867 5869 5871 5872 5873 5874 5875 5875 5875 5876 5876 5876 5876 5876 5876 5876 5875 5874 5874 5873 5872 5871 5870 5869 5868 5866 5866 5864 5863 5862 5861 5859 5858 5857 5856 5855 5853 5852
5852 5855 5857 5860 5862 5864 5865 5867 5868 5869 5870 5870 5870 5871 5871 5872 5872 5871 5871 5871 5870 5870 5869 5868 5867 5866 5865 5863 5862 5861 5860 5859 5858 5857 5855 5854 5853 5852 5850 5849 5848 5847 5845
5849 5852 5854 5856 5858 5860 5861 5862 5863 5864 5864 5865 5865 5866 5866 5866 5866 5866 5865 5865 5864 5863 5862 5861 5860 5859 5858 5857 5855 5854 5852 5851 5850 5849 5848 5846 5845 5844 5842 5841 5840 5839 5837
5846 5848 5850 5852 5854 5855 5856 5857 5858 5859 5859 5860 5860 5860 5860 5860 5859 5859 5859 5858 5857 5856 5855 5854 5853 5852 5850 5849 5847 5846 5844 5843 5841 5840 5839 5837 5836 5835 5834 5832 5831 5830 5828
5842 5843 5846 5848 5849 5850 5851 5852 5853 5853 5853 5853 5853 5853 5853 5853 5852 5851 5851 5850 5849 5848 5847 5846 5844 5843 5841 5840 5838 5837 5835 5834 5832 5830 5829 5827 5826 5825 5824 5822 5821 5820 5818
5838 5840 5842 5843 5844 5845 5845 5846 5846 5846 5846 5846 5846 5845 5845 5844 5844 5842 5842 5841 5840 5839 5838 5836 5835 5833 5832 5830 5829 5827 5825 5823 5822 5820 5818 5817 5815 5814 5813 5811 5810 5809 5807
5834 5836 5837 5837 5838 5838 5839 5839 5839 5839 5838 5838 5838 5837 5836 5836 5835 5833 5832 5831 5831 5829 5828 5826 5825 5823 5822 5820 5818 5816 5814 5812 5811 5809 5807 5805 5803 5802 5800 5799 5798 5797 5795
5830 5831 5831 5832 5832 5832 5832 5832 5831 5831 5830 5830 5829 5828 5827 5826 5825 5823 5822 5821 5820 5818 5817 5816 5814 5812 5810 5808 5806 5804 5802 5800 5799 5797 5794 5793 5791 5789 5787 5786 5785 5784 5782
5825 5825 5825 5825 5825 5825 5824 5824 5823 5822 5821 5821 5820 5818 5817 5815 5814 5813 5811 5810 5808 5807 5805 5803 5802 5800 5798 5795 5793 5791 5789 5787 5786 5784 5781 5780 5778 5776 5774 5772 5771 5769 5767
5818 5818 5818 5817 5817 5817 5816 5815 5814 5813 5812 5811 5809 5808 5806 5805 5804 5802 5801 5799 5797 5796 5793 5791 5789 5787 5784 5782 5780 5777 5775 5773 5772 5770 5767 5765 5763 5761 5759 5757 5755 5753 5752
5810 5810 5809 5809 5809 5808 5807 5806 5805 5804 5803 5801 5799 5797 5796 5794 5792 5790 5788 5787 5785 5783 5780 5777 5775 5773 5771 5768 5765 5763 5760 5757 5756 5754 5752 5749 5747 5744 5743 5741 5739 5737 5735